Flag Weather past 2 weeks in Mackay, Queensland, Australia

Now
82 °F

Partly sunny.


Feels Like: 87 °F
Forecast: 75 / 85 °F
Wind: 15 mph from East

Location: Mackay Mo

Current Time: Nov 26, 2014 at 9:46:17 AM

Latest Report: Nov 26, 2014 at 9:00 AM


Visibility: 13 mi

Pressure: 29.95 "Hg

Humidity: 77%

Dew point: 74 °F

Location of MackayLocation

Historic Weather in Mackay — Graph

°F

Mackay temperature yesterday

Maximum temperature yesterday: 84 °F (at 12:00 PM)
Minimum temperature yesterday: 76 °F (at 4:00 AM)
Average temperature yesterday: 80 °F

Past Weeks' High & Low Weather Summary

 TemperatureHumidityPressure
High90 °F (Nov 18, 1:00 PM)92% (Nov 15, 4:00 AM)30.07 "Hg (Nov 15, 4:00 AM)
Low65 °F (Nov 12, 4:00 AM)45% (Nov 16, 1:00 PM)29.79 "Hg (Nov 16, 4:00 PM)
Average79 °F71%29.95 "Hg
* Reported Nov 11 7:00 AM — Nov 26 7:00 AM, Mackay, Weather by CustomWeather, © 2014

Note: Actual official high and low records may vary slightly from our data, if they occured in-between our weather recording intervals... More about our weather records

Advertising

Mackay weather history for previous 24 hours

 ConditionsComfort  
Time TempWeatherWind HumidityBarometerVisibility
7:00 AM
Nov 26
82 °FWarm.9 mph76%29.93 "HgN/A
6:00 AM79 °FPassing clouds.8 mph83%29.91 "Hg12 mi
4:00 AM78 °FWarm.6 mph87%29.88 "HgN/A
3:00 AM78 °FOvercast.7 mph83%29.88 "HgN/A
1:00 AM78 °FWarm.7 mph85%29.89 "HgN/A
12:00 AM78 °FPassing clouds.6 mph86%29.91 "HgN/A
10:00 PM
Nov 25
78 °FWarm.8 mph86%29.94 "HgN/A
9:00 PM79 °FOvercast.8 mph83%29.93 "HgN/A
7:00 PM79 °FWarm.8 mph82%29.90 "HgN/A
6:00 PM80 °FWarm.8 mph76%29.88 "HgN/A
4:00 PM83 °FWarm.9 mph64%29.87 "HgN/A
3:00 PM83 °FPassing clouds.8 mph65%29.88 "Hg16 mi
1:00 PM83 °FWarm.9 mph64%29.91 "HgN/A
12:00 PM84 °FPassing clouds.8 mph62%29.93 "Hg16 mi
10:00 AM83 °FWarm.8 mph65%29.95 "HgN/A
9:00 AM84 °FScattered clouds.8 mph63%29.95 "Hg11 mi
Weather by CustomWeather, © 2014

See weather overviewHow to use our weather pages